This is the latest recevied weather packets stored in our database for station/object LZ1PDB-12. If no packets are shown the sender has not sent any weather packets the latest 10 day(s).
| Time | Temp. | Humidity | Pressure | Rain* | Wind** | Luminosity | Snow |
|---|---|---|---|---|---|---|---|
| 1778009447 | 18.33° C | 40% | 1019.8 hPa | - | - | - | - |
| 1778008547 | 18.33° C | 39% | 1019.7 hPa | - | - | - | - |
| 1778007642 | 18.89° C | 39% | 1019.6 hPa | - | - | - | - |
| 1778006742 | 18.89° C | 38% | 1019.5 hPa | - | - | - | - |
| 1778005842 | 19.44° C | 38% | 1019.4 hPa | - | - | - | - |
| 1778004942 | 19.44° C | 37% | 1019.2 hPa | - | - | - | - |
| 1778004041 | 20° C | 37% | 1019.1 hPa | - | - | - | - |
| 1778003140 | 20° C | 37% | 1018.9 hPa | - | - | - | - |
| 1778002240 | 20.56° C | 36% | 1018.8 hPa | - | - | - | - |
| 1778001340 | 20.56° C | 35% | 1018.8 hPa | - | - | - | - |
| 1778000440 | 21.11° C | 33% | 1018.7 hPa | - | - | - | - |
| 1777999540 | 22.22° C | 29% | 1018.6 hPa | - | - | - | - |
| 1777998640 | 22.22° C | 29% | 1018.8 hPa | - | - | - | - |
| 1777997738 | 22.78° C | 26% | 1018.7 hPa | - | - | - | - |
| 1777996837 | 22.78° C | 26% | 1018.7 hPa | - | - | - | - |
| 1777995937 | 22.22° C | 28% | 1018.7 hPa | - | - | - | - |
| 1777995037 | 23.33° C | 27% | 1018.9 hPa | - | - | - | - |
| 1777993570 | 23.89° C | 27% | 1019 hPa | - | - | - | - |
| 1777992670 | 23.33° C | 26% | 1019.1 hPa | - | - | - | - |
| 1777991769 | 23.33° C | 27% | 1019.3 hPa | - | - | - | - |
| 1777990869 | 23.33° C | 26% | 1019.3 hPa | - | - | - | - |
| 1777989969 | 23.33° C | 28% | 1019.4 hPa | - | - | - | - |
| 1777989069 | 23.89° C | 26% | 1019.5 hPa | - | - | - | - |
| 1777988168 | 25.56° C | 25% | 1019.6 hPa | - | - | - | - |
| 1777987268 | 25.56° C | 25% | 1019.7 hPa | - | - | - | - |
* Rain since midnight (hover to see other rain measurements)
** Current wind speed in m/s (hover to see current wind gust speed)